Tracking 18980 objects as of 19-Feb-2018
HD Live streaming from Space Station
objects crossing your sky now

COSMOS 1998

Track COSMOS 1998 now!
10-day predictions
COSMOS 1998 is classified as:


NORAD ID: 19789
Int'l Code: 1989-009E
Perigee: 1,397.3 km
Apogee: 1,422.9 km
Inclination: 82.6 °
Period: 113.8 minutes
Semi major axis: 7781 km
RCS: 1.1762 m2 (large)
Launch date: February 10, 1989
Source: Commonwealth of Independent States (former USSR) (CIS)
Launch site: PLESETSK MISSILE AND SPACE COMPLEX (PKMTR)
aabbcc
Your satellite tracking list
Your tracking list is empty




NASA's NSSDC Master Catalog

Two Line Element Set (TLE):
1 19789U 89009E   18049.61536334 +.00000010 +00000-0 -17100-5 0  9999
2 19789 082.6103 112.2477 0016455 012.2689 347.8801 12.64852338339614
Source of the keplerian elements: AFSPC